Location: Usti nad Orlici
(49.9830°N, 16.4000°E)
Time: 08:34:35
(UTC+02:00)

ISS - Pass Details

Date: 01 April 2019
Orbit: 408 x 410 km, 51.6° (Epoch: 25 April)

Event Time Altitude Azimuth Distance (km) Brightness Sun altitude
Rises 20:09:45 0° 280° (W) 2,338 2.4 -7.7°
Reaches altitude 10° 20:11:51 10° 283° (WNW) 1,475 0.8 -8.1°
Maximum altitude 20:15:09 67° 7° (N) 447 -3.6 -8.6°
Enters shadow 20:18:09 12° 90° (E) 1,360 -1.8 -9.0°
